TimeCDT,TemperatureF,Dew PointF,Humidity,Sea Level PressureIn,VisibilityMPH,Wind Direction,Wind SpeedMPH,Gust SpeedMPH,PrecipitationIn,Events,Conditions,WindDirDegrees,DateUTC
12:52 AM,73.0,71.1,93,30.15,10.0,ESE,16.1,-,N/A,,Partly Cloudy,120,2013-07-17 05:52:00
1:52 AM,71.1,70.0,96,30.15,10.0,SE,4.6,-,N/A,,Clear,140,2013-07-17 06:52:00
2:52 AM,71.1,69.1,93,30.13,10.0,ESE,5.8,-,0.02,Rain,Light Rain,110,2013-07-17 07:52:00
3:52 AM,70.0,69.1,97,30.14,10.0,SE,3.5,-,0.01,,Partly Cloudy,130,2013-07-17 08:52:00
4:52 AM,70.0,69.1,97,30.14,10.0,East,4.6,-,N/A,,Clear,80,2013-07-17 09:52:00
5:52 AM,70.0,69.1,97,30.16,10.0,Calm,Calm,-,N/A,,Scattered Clouds,0,2013-07-17 10:52:00
6:52 AM,70.0,69.1,97,30.17,10.0,East,4.6,-,N/A,,Partly Cloudy,100,2013-07-17 11:52:00
7:40 AM,69.8,69.8,100,30.25,10.0,East,4.6,-,N/A,,Partly Cloudy,80,2013-07-17 12:40:00
7:52 AM,70.0,69.1,97,30.19,10.0,East,5.8,-,N/A,,Scattered Clouds,80,2013-07-17 12:52:00
8:52 AM,72.0,69.1,91,30.20,10.0,East,6.9,-,N/A,,Mostly Cloudy,80,2013-07-17 13:52:00
9:52 AM,73.9,70.0,87,30.20,10.0,East,8.1,-,N/A,,Mostly Cloudy,90,2013-07-17 14:52:00
9:59 AM,73.4,69.8,88,30.27,10.0,East,8.1,-,N/A,,Overcast,90,2013-07-17 14:59:00
10:10 AM,73.4,69.8,88,30.27,10.0,East,9.2,-,N/A,,Overcast,100,2013-07-17 15:10:00
10:27 AM,73.4,69.8,88,30.27,10.0,East,6.9,-,N/A,,Overcast,100,2013-07-17 15:27:00
10:52 AM,73.9,71.1,91,30.20,10.0,East,6.9,-,0.00,,Overcast,80,2013-07-17 15:52:00
11:52 AM,75.9,72.0,87,30.20,10.0,East,6.9,-,0.01,,Mostly Cloudy,80,2013-07-17 16:52:00
12:48 PM,78.8,69.8,74,30.25,10.0,East,8.1,-,N/A,,Mostly Cloudy,100,2013-07-17 17:48:00
12:52 PM,78.1,70.0,76,30.18,10.0,East,11.5,-,N/A,,Mostly Cloudy,100,2013-07-17 17:52:00
1:09 PM,77.0,69.8,78,30.25,10.0,East,17.3,21.9,N/A,,Overcast,100,2013-07-17 18:09:00
1:52 PM,75.0,71.1,87,30.17,9.0,ESE,10.4,-,0.01,Rain,Light Rain,120,2013-07-17 18:52:00
2:52 PM,78.1,72.0,81,30.14,10.0,East,8.1,-,0.02,,Mostly Cloudy,90,2013-07-17 19:52:00
3:52 PM,75.0,70.0,84,30.14,10.0,ENE,11.5,27.6,0.01,,Overcast,70,2013-07-17 20:52:00
4:34 PM,75.2,71.6,89,30.20,10.0,East,10.4,-,0.00,,Mostly Cloudy,80,2013-07-17 21:34:00
4:52 PM,73.9,70.0,87,30.15,9.0,East,12.7,-,0.00,Rain,Light Rain,80,2013-07-17 21:52:00
5:52 PM,75.0,71.1,87,30.14,10.0,ENE,6.9,-,0.01,,Mostly Cloudy,70,2013-07-17 22:52:00
6:52 PM,75.9,72.0,87,30.12,10.0,ENE,6.9,-,N/A,,Clear,60,2013-07-17 23:52:00
7:52 PM,75.9,72.0,87,30.14,10.0,East,10.4,-,N/A,,Clear,80,2013-07-18 00:52:00
8:52 PM,72.0,68.0,87,30.18,10.0,ESE,17.3,28.8,0.00,Rain,Light Rain,110,2013-07-18 01:52:00
9:52 PM,69.1,66.9,93,30.17,9.0,South,4.6,-,0.03,Rain,Light Rain,180,2013-07-18 02:52:00
10:52 PM,69.1,68.0,96,30.15,10.0,Calm,Calm,-,0.06,Rain,Light Rain,0,2013-07-18 03:52:00
11:52 PM,70.0,69.1,97,30.17,10.0,ESE,4.6,-,0.00,,Scattered Clouds,120,2013-07-18 04:52:00